Location: Newark
(51.0500°N, 12.4500°E)
Time: 02:10:46
(UTC+00:00)

Vanguard 1 - Pass Details

Date: 19 February 2020
Orbit: 649 x 3833 km, 34.2° (Epoch: 06 April)

Event Time Altitude Azimuth Distance (km) Brightness Sun altitude
Rises 07:15:35 0° 216° (SW) 7,889 14.6 7.7°
Reaches altitude 10° 07:22:30 10° 206° (SSW) 6,625 14.4 8.6°
Maximum altitude 07:37:40 28° 159° (SSE) 4,302 14.3 10.7°
Drops below altitude 10° 07:48:07 10° 108° (ESE) 4,528 15.2 12.0°
Sets 07:51:41 0° 96° (E) 5,107 14.8 12.5°
